This is the latest recevied weather packets stored in our database for station/object LA3SP-1. If no packets are shown the sender has not sent any weather packets the latest 10 day(s).
| Time | Temp. | Humidity | Pressure | Rain* | Wind** | Luminosity | Snow |
|---|---|---|---|---|---|---|---|
| 1777381083 | 8.89° C | 47% | 1023.5 hPa | 0 mm | - | - | - |
| 1777379881 | 10° C | 46% | 1023.3 hPa | 0 mm | - | - | - |
| 1777379279 | 10.56° C | 47% | 1023.5 hPa | 0 mm | - | - | - |
| 1777378678 | 9.44° C | 47% | 1023.4 hPa | 0 mm | - | - | - |
| 1777378076 | 8.89° C | 48% | 1023.5 hPa | 0 mm | - | - | - |
| 1777377475 | 8.33° C | 47% | 1023.3 hPa | 0 mm | - | - | - |
| 1777376644 | 9.44° C | 46% | 1023.1 hPa | 0 mm | - | - | - |
| 1777376272 | 10° C | 45% | 1023.2 hPa | 0 mm | - | - | - |
| 1777375671 | 9.44° C | 45% | 1023.2 hPa | 0 mm | - | - | - |
| 1777375070 | 9.44° C | 46% | 1023.1 hPa | 0 mm | - | - | - |
| 1777374468 | 9.44° C | 43% | 1023.1 hPa | 0 mm | - | - | - |
| 1777373866 | 10° C | 42% | 1023.2 hPa | 0 mm | - | - | - |
| 1777373265 | 10.56° C | 41% | 1023 hPa | 0 mm | - | - | - |
| 1777372063 | 11.67° C | 41% | 1023.1 hPa | 0 mm | - | - | - |
| 1777371461 | 12.22° C | 42% | 1023 hPa | 0 mm | - | - | - |
| 1777370860 | 12.22° C | 40% | 1023 hPa | 0 mm | - | - | - |
| 1777370258 | 12.22° C | 43% | 1023 hPa | 0 mm | - | - | - |
| 1777369657 | 11.67° C | 45% | 1023 hPa | 0 mm | - | - | - |
| 1777368455 | 10° C | 46% | 1022.9 hPa | 0 mm | - | - | - |
| 1777367853 | 9.44° C | 46% | 1022.9 hPa | 0 mm | - | - | - |
| 1777367252 | 8.89° C | 51% | 1022.9 hPa | 0 mm | - | - | - |
| 1777366650 | 7.22° C | 52% | 1022.8 hPa | 0 mm | - | - | - |
| 1777366049 | 6.11° C | 51% | 1022.8 hPa | 0 mm | - | - | - |
| 1777365447 | 5.56° C | 52% | 1022.9 hPa | 0 mm | - | - | - |
| 1777364245 | 5° C | 55% | 1022.9 hPa | 0 mm | - | - | - |
* Rain latest 24 hours (hover to see other rain measurements)
** Current wind speed in m/s (hover to see current wind gust speed)